Terminal Aerodrome Forecast
Issued by NWS Jackson, KY

Home | Current Version | Previous Version | Text Only | Print | Product List | Glossary On
Versions: 1 2 3 4 5 6 7 8 9 10 11 12 13
000
FTUS43 KJKL 290539
TAFJKL
TAF
KJKL 290539Z 2906/3006 VRB03KT P6SM BKN080 BKN250
     FM290900 VRB03KT 5SM BR SCT080 BKN250
     FM291600 VRB05KT P6SM VCTS BKN050CB=

USA.gov is the U.S. government's official web portal to all federal, state and local government web resources and services.